Wind_Speed
21 21 21 20 21 19 17 16 16 14 13 13 12 12 11 10 9 9 8 8 8 8 7 7 7 6 7 8 8 9 9 9 10 10 10 9 8 9 8 8 8 8 8 8 8 7 7 7 8
22 22 21 22 22 18 18 17 16 15 14 13 13 12 11 11 10 9 8 8 8 8 7 7 8 7 7 8 9 9 10 10 9 9 9 9 9 9 8 8 8 8 8 8 7 7 6 7 7
21 21 22 23 20 19 19 18 18 17 15 14 14 13 12 11 11 10 9 9 8 8 7 6 7 7 8 8 9 10 10 10 10 9 9 9 9 9 8 8 8 7 8 8 7 6 5 6 8
21 22 23 22 20 20 20 19 19 18 17 15 15 13 13 12 11 10 10 10 9 8 7 6 6 7 7 8 8 9 9 10 9 9 9 8 8 8 8 8 7 7 7 7 7 6 6 6 8
20 23 23 21 21 20 20 20 20 20 18 16 15 14 12 11 11 11 10 10 9 8 7 6 6 6 7 7 7 8 9 9 9 9 8 8 8 8 9 8 8 7 7 7 6 6 6 7 8
20 22 20 20 20 21 21 21 21 21 19 17 16 14 13 11 11 11 10 9 9 8 7 7 7 7 7 6 6 7 8 8 9 9 8 7 8 9 8 8 7 7 7 7 6 6 5 7 7
20 20 19 19 20 20 20 20 21 21 20 18 17 15 13 12 11 11 10 9 9 8 7 7 7 6 6 6 6 6 7 8 8 8 8 7 8 8 8 8 7 7 7 6 6 6 6 6 6
18 19 18 19 20 20 20 20 21 21 21 19 18 16 14 13 11 10 10 9 9 8 7 7 6 7 6 6 6 7 8 8 8 8 8 8 7 7 7 7 6 6 7 6 6 6 6 6 6
17 18 16 18 19 19 20 20 21 21 21 20 19 17 15 13 11 10 10 9 9 9 8 8 7 7 8 7 7 8 9 9 9 8 8 8 7 7 6 6 6 6 6 6 5 5 5 6 6
16 15 15 17 18 19 20 20 20 21 21 20 19 18 16 14 12 11 10 10 9 8 8 9 8 8 8 8 8 9 9 9 8 8 7 7 7 6 6 5 5 5 5 5 5 5 4 5 6
13 13 14 15 17 18 19 20 20 20 21 20 19 18 17 15 13 11 11 10 9 9 9 8 9 8 8 8 9 9 9 8 7 7 6 5 5 5 5 4 4 4 4 4 4 5 4 5 6
11 12 13 14 16 17 18 18 19 20 19 19 18 18 16 15 13 12 11 10 10 9 9 9 8 8 8 8 8 8 7 7 6 6 5 4 4 4 4 4 4 3 3 4 3 3 4 4 5
10 11 12 13 15 16 17 18 18 18 18 18 18 17 17 15 13 11 11 10 10 9 9 9 8 8 8 7 7 7 7 6 6 5 4 4 3 3 3 3 3 3 3 3 4 3 4 4 4
8 10 10 12 13 14 15 16 17 17 17 17 18 17 16 16 14 12 11 10 9 9 8 8 8 8 8 7 7 7 6 6 5 5 4 3 2 2 2 2 2 2 2 2 3 3 3 3 3
6 7 9 10 11 12 13 15 15 15 15 16 16 16 16 15 15 13 11 10 10 9 9 9 8 8 8 7 6 6 5 5 4 4 3 3 2 2 1 1 2 2 2 2 2 3 3 3 4
4 6 7 8 9 11 12 13 13 14 14 14 15 15 15 15 14 13 12 11 10 10 9 9 9 8 8 7 6 5 5 5 4 4 3 3 2 2 1 0 1 2 3 3 3 3 4 4 5
2 3 4 5 7 8 10 11 12 12 13 13 14 14 14 14 14 13 12 11 10 10 9 9 8 8 7 7 6 5 4 4 4 3 3 2 2 2 2 1 1 3 4 4 4 4 5 6 6
3 1 1 4 5 6 8 9 10 10 11 11 12 12 13 13 13 13 12 11 10 10 9 9 8 8 7 7 6 5 4 3 3 2 2 2 1 2 2 2 2 3 4 5 6 6 7 7 7
5 3 2 3 4 5 6 7 8 8 9 10 10 10 11 11 12 12 12 11 10 9 9 8 8 7 6 6 6 6 5 4 3 2 2 2 2 3 3 4 4 5 6 7 7 7 7 8 8
7 5 4 4 5 4 4 5 6 7 7 8 9 9 9 9 10 10 11 11 10 9 9 8 8 7 6 6 6 6 6 5 4 3 3 3 3 4 4 4 5 5 6 6 7 8 8 8 8
9 7 7 6 6 5 4 4 4 6 7 7 8 8 7 8 9 9 10 10 10 9 9 8 8 7 7 7 6 6 6 6 5 4 5 5 5 4 5 5 5 5 6 6 7 8 9 9 10
11 10 8 7 6 6 3 2 5 5 6 6 7 7 6 7 8 8 9 9 8 8 8 8 7 7 6 6 6 6 6 6 6 6 6 6 6 5 5 5 5 6 6 6 7 7 8 9 10
14 12 11 9 8 6 6 4 5 5 5 6 6 6 6 6 7 8 8 9 8 8 8 8 7 7 6 6 6 7 7 7 7 7 8 8 7 7 7 7 7 7 7 7 8 8 9 9 10
16 14 13 11 9 8 8 6 5 7 6 5 5 5 5 6 7 8 8 8 8 8 8 8 8 7 7 6 7 7 7 8 8 8 8 9 9 9 8 8 8 8 8 8 8 9 10 11 11
18 15 12 10 10 10 10 8 7 8 7 6 6 6 5 6 7 7 8 9 9 8 8 8 7 7 7 7 7 8 8 8 8 9 9 10 10 10 10 10 9 9 9 9 10 10 10 11 12
20 16 14 11 10 10 12 10 9 9 8 7 7 7 6 6 7 8 8 9 9 9 8 8 7 7 7 8 8 8 9 9 9 9 10 11 11 11 11 11 11 10 10 11 11 11 11 11 12
21 19 16 14 12 11 12 11 10 9 9 8 9 8 8 8 8 9 9 9 10 10 9 9 8 8 8 8 9 9 9 10 10 10 11 12 12 12 12 12 12 11 11 11 11 12 12 12 12
23 21 18 16 15 13 14 13 12 10 10 10 10 9 9 9 9 9 9 9 10 10 10 9 9 9 9 9 10 10 10 11 11 11 12 13 13 13 13 14 13 13 13 12 12 13 13 13 13
25 24 22 19 18 15 14 14 13 13 12 11 11 10 9 10 10 10 10 10 11 11 10 10 9 9 9 10 11 11 11 12 12 13 14 14 14 14 14 14 14 13 13 13 13 14 14 14 15
25 24 23 21 20 19 17 16 16 15 14 13 12 11 11 11 12 12 12 12 12 11 11 11 11 11 11 12 12 12 13 13 14 14 15 15 15 15 14 14 14 14 14 14 14 14 15 15 16
Wind_Direction
61 59 58 60 61 59 61 61 62 66 69 72 74 77 82 87 95 100 100 104 111 119 122 121 125 124 127 130 135 140 138 140 143 142 142 139 134 136 136 134 136 139 143 140 137 136 138 145 150
62 61 60 62 63 60 58 58 61 63 67 69 70 74 78 82 87 92 96 100 106 112 119 120 128 128 132 133 134 137 139 139 138 138 140 140 137 137 136 136 136 141 145 145 141 143 148 155 161
62 62 61 62 62 61 58 58 60 61 64 66 69 73 76 78 78 84 88 94 101 107 115 117 124 127 132 133 135 137 136 138 135 134 136 138 141 143 140 136 135 138 141 143 143 145 150 159 165
65 64 61 61 59 58 58 57 58 60 63 66 67 69 73 75 76 82 85 90 96 103 110 117 122 129 130 129 130 133 132 135 134 132 133 134 139 142 142 141 138 136 133 132 137 141 143 154 162
67 64 60 59 57 56 57 57 58 57 59 62 63 65 68 70 74 80 85 88 96 99 105 112 117 126 123 123 124 129 132 133 134 133 132 133 135 137 138 141 139 137 135 132 132 136 133 144 156
68 65 64 60 58 57 56 56 58 57 57 58 62 63 63 66 72 77 80 81 87 93 97 106 114 120 120 121 126 131 132 136 133 133 131 130 129 132 136 140 142 142 138 135 138 142 141 149 159
70 67 63 59 57 56 56 55 57 57 56 57 58 62 64 65 71 75 77 79 85 93 96 103 113 121 122 122 125 132 137 135 136 136 132 131 131 133 133 137 139 144 146 141 142 145 147 153 162
69 65 60 58 56 56 55 54 55 56 55 55 57 59 60 65 70 73 74 78 87 93 93 98 101 108 110 115 118 128 140 141 140 139 137 133 132 133 134 136 137 139 144 143 144 145 151 157 165
67 65 61 59 58 56 54 53 53 54 54 53 54 56 58 63 68 69 72 78 86 88 88 96 101 105 108 110 115 124 133 137 134 133 132 134 133 134 137 137 137 140 147 150 153 153 150 162 176
68 67 63 60 58 56 55 53 52 53 52 52 53 53 57 61 65 66 69 75 77 80 81 87 92 101 105 110 111 116 125 129 128 126 125 129 127 132 137 139 138 140 147 155 160 157 159 170 177
69 67 63 59 56 55 54 53 51 51 50 49 51 52 54 59 63 66 68 69 72 76 80 85 87 92 98 107 110 113 120 121 121 122 125 128 125 128 133 135 137 143 146 152 158 158 165 173 183
67 65 61 57 56 55 53 51 49 49 50 49 48 50 53 58 63 66 69 69 71 76 79 83 87 88 91 100 108 111 113 115 115 118 122 124 123 129 131 134 141 145 153 163 164 174 178 181 185
64 65 61 56 53 51 52 51 49 50 50 49 48 48 51 55 58 62 68 68 70 74 80 82 84 87 90 95 103 108 110 111 108 109 115 122 127 141 152 148 147 151 154 169 186 197 199 198 208
66 65 61 53 49 49 49 50 49 49 50 50 50 49 50 51 53 57 63 67 69 71 74 78 82 86 89 93 101 103 104 105 107 106 101 98 96 129 163 172 180 182 180 180 187 204 218 219 225
65 63 57 51 46 47 46 45 47 49 49 49 48 48 48 50 52 55 58 62 67 70 69 69 75 82 84 89 93 96 98 96 99 98 93 86 78 78 104 191 214 212 217 225 230 225 227 226 227
68 62 51 43 42 41 43 40 43 46 46 47 48 46 46 47 48 51 56 61 67 68 66 65 69 75 75 79 84 88 91 92 88 85 81 71 70 64 53 33 229 227 232 239 246 243 239 242 236
72 70 48 30 34 35 40 40 42 43 44 44 46 45 44 45 45 47 53 58 63 63 62 64 68 72 72 72 77 80 84 86 83 79 74 65 54 24 11 349 277 248 245 245 248 251 252 253 247
214 184 7 12 16 24 31 35 35 39 39 38 39 41 41 44 44 45 49 52 56 59 60 61 64 68 68 67 67 65 63 68 65 62 51 34 10 339 328 320 298 273 264 261 257 255 256 257 253
217 233 278 318 346 5 16 26 29 33 34 32 32 35 36 39 42 43 44 45 50 53 53 53 56 61 61 59 57 53 47 41 29 22 11 360 339 327 317 303 290 279 275 268 261 259 259 259 258
228 238 260 287 315 336 356 6 18 26 23 23 24 26 28 31 33 36 38 40 42 43 46 48 49 48 44 44 44 43 39 32 20 5 355 349 344 337 327 308 300 284 279 275 270 266 266 266 267
233 240 255 273 293 314 336 1 4 6 7 8 9 12 17 20 22 26 29 30 33 34 37 39 39 37 33 32 30 27 23 18 16 7 353 343 333 330 322 311 305 301 292 286 277 271 267 271 271
236 243 252 265 285 305 321 337 337 349 349 351 359 0 359 5 11 14 15 14 16 19 21 25 28 28 25 21 18 14 10 7 5 358 350 342 336 328 321 322 312 300 300 293 287 282 275 275 278
233 242 251 259 266 277 289 282 309 322 329 335 341 348 348 351 356 359 0 2 1 3 6 10 11 13 12 7 3 3 4 3 358 353 348 342 336 330 323 318 313 306 300 294 288 285 281 280 278
235 243 250 254 259 266 273 278 293 307 304 312 318 326 332 336 342 347 346 344 346 347 353 357 358 359 359 358 355 352 353 353 350 345 341 337 334 329 323 318 312 308 302 295 292 291 286 281 279
235 239 246 250 255 259 268 277 281 290 289 290 293 303 309 319 329 336 337 335 332 332 339 343 345 346 347 348 346 342 339 336 336 336 335 331 329 325 321 317 313 311 308 303 296 293 291 287 283
236 235 233 236 248 260 269 274 280 290 286 283 287 291 291 301 312 322 323 321 321 318 321 331 331 335 338 339 338 335 333 330 328 329 329 327 325 323 319 316 312 309 308 306 301 299 294 291 288
234 233 233 240 244 249 263 274 276 285 286 284 287 288 285 289 300 305 309 310 307 307 309 316 315 321 326 328 328 327 327 326 326 323 321 321 320 319 317 314 311 308 305 304 302 299 297 294 292
232 234 236 234 242 248 262 269 271 275 279 284 284 282 281 282 285 292 301 301 301 300 300 304 304 308 314 319 323 323 320 321 320 319 317 318 317 316 314 312 307 304 301 299 299 299 298 296 295
232 234 237 238 239 246 258 266 270 272 277 280 281 276 277 277 281 287 294 294 298 299 298 299 302 305 308 313 317 318 318 316 318 315 314 315 315 313 311 309 306 302 301 298 295 295 296 295 294
235 236 238 238 244 246 250 260 268 272 274 274 273 268 271 276 280 284 287 290 293 295 295 294 295 297 300 305 310 313 314 316 315 312 310 311 311 310 308 306 304 302 301 297 293 293 294 294 295
Height
5890 5888 5887 5886 5886 5886 5884 5882 5880 5878 5876 5875 5873 5872 5871 5871 5871 5873 5870 5869 5869 5869 5869 5870 5870 5870 5870 5870 5871 5872 5872 5873 5873 5874 5874 5875 5875 5876 5876 5877 5878 5879 5880 5880 5881 5881 5882 5883 5884
5893 5891 5891 5889 5889 5888 5886 5883 5881 5879 5877 5876 5874 5873 5873 5872 5871 5871 5870 5870 5870 5870 5870 5870 5870 5871 5871 5871 5872 5872 5873 5874 5874 5874 5875 5875 5876 5877 5877 5878 5878 5879 5880 5881 5881 5882 5882 5883 5884
5895 5894 5894 5892 5892 5890 5888 5885 5883 5880 5878 5877 5876 5875 5874 5873 5872 5871 5871 5871 5871 5871 5871 5871 5871 5871 5872 5872 5873 5873 5874 5875 5875 5875 5875 5876 5877 5877 5878 5879 5879 5880 5881 5881 5882 5882 5882 5882 5883
5898 5897 5896 5896 5894 5892 5890 5887 5884 5882 5880 5878 5877 5876 5875 5874 5873 5873 5872 5872 5872 5872 5872 5872 5872 5872 5872 5873 5873 5874 5875 5875 5876 5876 5876 5877 5877 5878 5878 5879 5880 5881 5881 5882 5882 5882 5882 5881 5883
5901 5900 5900 5899 5896 5894 5892 5889 5886 5884 5882 5880 5879 5878 5876 5876 5875 5874 5873 5873 5873 5873 5873 5873 5873 5873 5873 5874 5874 5874 5875 5876 5876 5877 5877 5877 5878 5879 5879 5880 5881 5881 5882 5883 5883 5883 5883 5883 5884
5904 5903 5904 5902 5899 5897 5894 5891 5888 5886 5884 5882 5880 5879 5878 5877 5876 5876 5875 5875 5874 5874 5874 5874 5874 5874 5874 5874 5874 5875 5875 5876 5876 5877 5878 5878 5879 5879 5880 5881 5881 5882 5883 5883 5884 5884 5884 5885 5885
5907 5907 5906 5904 5902 5899 5897 5894 5891 5888 5886 5884 5882 5881 5880 5879 5878 5878 5877 5877 5876 5876 5875 5875 5875 5875 5874 5874 5874 5874 5875 5876 5877 5878 5878 5879 5879 5880 5881 5881 5882 5883 5884 5884 5885 5885 5885 5886 5887
5909 5910 5909 5907 5904 5902 5900 5896 5894 5891 5889 5887 5885 5883 5882 5881 5880 5880 5879 5878 5878 5877 5877 5876 5876 5876 5875 5874 5874 5873 5875 5876 5877 5878 5879 5880 5880 5881 5881 5882 5883 5884 5884 5885 5885 5886 5886 5887 5887
5911 5914 5912 5909 5907 5905 5902 5899 5897 5894 5892 5889 5887 5886 5885 5883 5882 5882 5881 5880 5880 5880 5879 5878 5877 5877 5876 5875 5874 5874 5875 5876 5878 5879 5880 5881 5881 5882 5882 5883 5883 5884 5884 5885 5885 5886 5887 5887 5887
5915 5916 5914 5911 5909 5907 5904 5902 5899 5897 5894 5892 5890 5888 5886 5885 5885 5884 5883 5882 5882 5881 5881 5880 5880 5879 5878 5877 5876 5876 5877 5878 5880 5881 5881 5882 5882 5883 5883 5883 5884 5884 5885 5885 5885 5886 5886 5887 5887
5917 5917 5915 5913 5911 5909 5907 5904 5902 5899 5897 5895 5893 5891 5889 5888 5887 5886 5885 5884 5884 5883 5883 5882 5881 5881 5880 5880 5879 5879 5879 5881 5881 5882 5883 5883 5883 5884 5884 5884 5884 5884 5885 5885 5885 5886 5886 5887 5887
5919 5918 5917 5915 5913 5911 5909 5907 5904 5902 5900 5898 5896 5894 5892 5890 5889 5888 5887 5886 5886 5885 5884 5884 5883 5883 5882 5882 5882 5882 5882 5883 5883 5883 5884 5884 5884 5884 5885 5885 5885 5885 5885 5885 5886 5886 5886 5886 5887
5920 5920 5919 5917 5915 5914 5912 5909 5907 5905 5903 5900 5898 5896 5895 5893 5891 5890 5889 5888 5887 5887 5886 5886 5885 5885 5885 5884 5884 5884 5884 5884 5884 5885 5884 5885 5885 5885 5885 5885 5885 5885 5885 5885 5886 5886 5886 5886 5887
5922 5921 5920 5919 5917 5916 5914 5912 5910 5907 5905 5903 5901 5899 5897 5896 5894 5892 5891 5890 5890 5889 5888 5887 5887 5886 5886 5886 5886 5886 5886 5885 5885 5885 5885 5885 5885 5885 5885 5885 5885 5885 5885 5885 5885 5886 5886 5886 5887
5922 5922 5922 5921 5919 5918 5916 5914 5912 5910 5908 5906 5904 5902 5900 5898 5897 5895 5894 5893 5892 5891 5890 5889 5888 5888 5887 5887 5887 5887 5887 5887 5886 5886 5886 5886 5885 5885 5885 5885 5885 5885 5885 5885 5885 5886 5886 5886 5887
5923 5924 5924 5923 5921 5920 5919 5917 5915 5912 5910 5908 5906 5905 5903 5901 5899 5897 5896 5895 5894 5893 5892 5891 5890 5889 5889 5888 5888 5888 5888 5888 5887 5887 5886 5886 5886 5886 5885 5885 5885 5885 5885 5885 5885 5885 5886 5886 5886
5925 5926 5925 5924 5922 5921 5920 5919 5917 5914 5912 5910 5909 5907 5905 5903 5902 5900 5898 5897 5896 5895 5894 5893 5892 5891 5890 5890 5890 5889 5889 5889 5888 5887 5887 5887 5886 5886 5886 5885 5885 5885 5885 5885 5885 5885 5885 5885 5885
5926 5926 5926 5925 5923 5922 5921 5920 5918 5916 5914 5912 5911 5909 5908 5906 5904 5902 5901 5899 5898 5897 5896 5894 5893 5893 5892 5891 5891 5890 5889 5889 5888 5888 5887 5887 5886 5886 5885 5885 5884 5884 5884 5884 5884 5884 5884 5884 5883
5925 5925 5925 5925 5924 5923 5922 5921 5919 5918 5916 5914 5912 5911 5910 5908 5906 5905 5903 5901 5900 5899 5897 5896 5895 5894 5893 5892 5891 5891 5890 5889 5889 5888 5887 5886 5886 5885 5884 5884 5884 5883 5883 5882 5882 5882 5882 5882 5882
5923 5924 5925 5924 5923 5923 5922 5921 5920 5919 5917 5916 5914 5913 5911 5910 5908 5906 5905 5903 5902 5901 5899 5898 5897 5896 5895 5893 5892 5891 5891 5890 5889 5888 5887 5886 5885 5885 5884 5883 5882 5882 5881 5881 5881 5880 5880 5880 5880
5921 5923 5924 5924 5923 5922 5922 5922 5921 5919 5918 5916 5915 5914 5912 5911 5910 5908 5907 5905 5904 5902 5901 5899 5898 5897 5896 5895 5893 5892 5891 5890 5889 5888 5887 5886 5885 5884 5883 5882 5881 5880 5880 5879 5879 5878 5878 5878 5878
5919 5920 5921 5922 5922 5922 5922 5923 5921 5920 5918 5917 5916 5914 5913 5912 5911 5909 5908 5906 5905 5903 5902 5900 5899 5897 5896 5895 5894 5893 5892 5890 5889 5888 5887 5886 5884 5883 5882 5881 5880 5879 5879 5878 5877 5877 5876 5876 5875
5917 5918 5919 5919 5920 5922 5921 5922 5923 5919 5918 5917 5916 5915 5914 5912 5911 5910 5908 5907 5905 5904 5903 5901 5900 5898 5897 5895 5894 5893 5892 5890 5889 5888 5887 5885 5884 5882 5881 5880 5879 5878 5877 5876 5875 5875 5874 5873 5873
5913 5915 5916 5917 5919 5920 5920 5921 5921 5919 5918 5917 5915 5914 5913 5912 5911 5910 5908 5907 5906 5904 5903 5901 5900 5898 5897 5895 5894 5893 5892 5890 5889 5887 5886 5885 5883 5882 5880 5879 5877 5876 5874 5874 5873 5872 5871 5871 5870
5910 5913 5915 5917 5918 5919 5918 5918 5919 5917 5916 5915 5914 5913 5913 5912 5910 5909 5908 5907 5905 5904 5902 5901 5900 5898 5897 5895 5894 5892 5891 5889 5888 5886 5885 5884 5882 5880 5879 5877 5875 5874 5872 5871 5870 5870 5869 5868 5867
5906 5910 5914 5916 5917 5917 5915 5915 5916 5915 5914 5913 5912 5912 5911 5910 5909 5908 5907 5906 5904 5903 5902 5900 5899 5898 5896 5895 5893 5891 5890 5888 5886 5885 5883 5882 5880 5879 5877 5875 5874 5872 5870 5869 5868 5867 5866 5865 5864
5902 5905 5909 5912 5912 5914 5913 5912 5913 5912 5911 5911 5910 5910 5909 5909 5908 5907 5906 5904 5903 5902 5900 5899 5898 5897 5895 5894 5892 5890 5888 5887 5885 5883 5882 5880 5878 5877 5875 5873 5872 5870 5868 5867 5866 5864 5863 5862 5861
5899 5902 5904 5907 5909 5911 5911 5910 5910 5909 5909 5909 5908 5907 5907 5906 5906 5905 5904 5903 5901 5900 5898 5897 5896 5895 5894 5892 5891 5889 5887 5885 5883 5881 5880 5877 5876 5874 5872 5871 5869 5867 5866 5864 5863 5862 5860 5859 5857
5894 5897 5899 5902 5904 5907 5909 5910 5906 5906 5906 5905 5905 5904 5904 5904 5903 5903 5902 5901 5899 5898 5896 5895 5894 5893 5892 5891 5889 5887 5885 5883 5880 5879 5876 5875 5873 5871 5869 5867 5866 5864 5862 5861 5860 5858 5857 5856 5854
5888 5891 5894 5898 5899 5900 5904 5907 5902 5902 5902 5902 5901 5901 5901 5901 5900 5900 5899 5898 5897 5895 5894 5893 5892 5891 5890 5888 5887 5885 5883 5880 5878 5875 5873 5871 5870 5868 5866 5864 5862 5861 5859 5858 5856 5855 5854 5852 5851